Flag for Marshall Islands Weather past 2 weeks in Kwajalein, Marshall Islands

Now
80 °F

Mostly cloudy.


Feels Like: 85 °F
Forecast: 80 / 86 °F
Wind: 17 mph from Northeast

Location: Kwajalein / Bucholz

Current Time: Mar 7, 2015 at 1:46:10 AM

Latest Report: Mar 7, 2015 at 1:20 AM


Visibility: 10 mi

Pressure: 29.67 "Hg

Humidity: 80%

Dew point: 74 °F

Location of KwajaleinLocation

Historic Weather in Kwajalein — Graph

°F

Kwajalein temperature yesterday

Maximum temperature yesterday: 86 °F (at 1:40 PM)
Minimum temperature yesterday: 76 °F (at 3:20 AM)
Average temperature yesterday: 82 °F

Past Weeks' High & Low Weather Summary

 TemperatureHumidityPressure
High88 °F (Feb 22, 1:40 PM)90% (Feb 26, 5:00 PM)29.89 "Hg (Feb 26, 5:00 PM)
Low76 °F (Mar 6, 3:20 AM)51% (Feb 23, 12:20 PM)29.63 "Hg (Mar 6, 4:00 PM)
Average82 °F74%29.79 "Hg
* Reported Feb 20 1:00 AM — Mar 7 1:00 AM, Kwajalein, Weather by CustomWeather, © 2015

Note: Actual official high and low records may vary slightly from our data, if they occured in-between our weather recording intervals... More about our weather records

Advertising

Kwajalein weather history for previous 24 hours

 ConditionsComfort  
Time TempWeatherWind HumidityBarometerVisibility
1:00 AM
Sat, Mar 7
81 °FPartly cloudy.18 mph79%29.69 "Hg10 mi
12:20 AM82 °FPassing clouds.20 mph76%29.70 "Hg10 mi
12:00 AM82 °FPassing clouds.20 mph75%29.70 "Hg10 mi
11:40 PM
Fri, Mar 6
82 °FPassing clouds.21 mph76%29.70 "Hg10 mi
11:20 PM82 °FPassing clouds.21 mph77%29.71 "Hg10 mi
11:00 PM81 °FPassing clouds.23 mph79%29.71 "Hg10 mi
10:40 PM81 °FPartly cloudy.21 mph79%29.71 "Hg10 mi
10:20 PM81 °FPassing clouds.22 mph79%29.71 "Hg10 mi
10:00 PM81 °FPassing clouds.18 mph78%29.71 "Hg10 mi
9:20 PM82 °FPartly cloudy.17 mph76%29.71 "Hg10 mi
9:00 PM82 °FPassing clouds.18 mph76%29.71 "Hg10 mi
8:20 PM82 °FPassing clouds.18 mph77%29.69 "Hg10 mi
8:00 PM81 °FPassing clouds.18 mph78%29.68 "Hg10 mi
7:40 PM81 °FPartly cloudy.18 mph76%29.67 "Hg10 mi
7:20 PM82 °FPartly cloudy.18 mph76%29.66 "Hg10 mi
7:00 PM82 °FPartly cloudy.18 mph75%29.66 "Hg10 mi
6:20 PM83 °FScattered clouds.15 mph73%29.65 "Hg10 mi
6:00 PM83 °FSunny.20 mph73%29.64 "Hg10 mi
5:20 PM84 °FBroken clouds.16 mph73%29.63 "Hg10 mi
5:00 PM84 °FScattered clouds.17 mph73%29.63 "Hg10 mi
4:40 PM85 °FBroken clouds.16 mph72%29.63 "Hg10 mi
4:20 PM85 °FScattered clouds.15 mph71%29.63 "Hg10 mi
4:00 PM85 °FScattered clouds.17 mph70%29.63 "Hg10 mi
3:20 PM85 °FScattered clouds.21 mph70%29.64 "Hg10 mi
3:00 PM85 °FScattered clouds.16 mph69%29.64 "Hg10 mi
1:40 PM86 °FScattered clouds.18 mph68%29.68 "Hg10 mi
1:20 PM86 °FScattered clouds.21 mph69%29.69 "Hg10 mi
1:00 PM85 °FScattered clouds.21 mph69%29.70 "Hg10 mi
12:20 PM85 °FScattered clouds.21 mph70%29.72 "Hg10 mi
12:00 PM84 °FScattered clouds.20 mph71%29.73 "Hg10 mi
11:40 AM84 °FScattered clouds.22 mph71%29.73 "Hg10 mi
11:20 AM85 °FScattered clouds.22 mph70%29.74 "Hg10 mi
11:00 AM85 °FSunny.20 mph70%29.75 "Hg10 mi
10:40 AM84 °FSunny.20 mph71%29.75 "Hg10 mi
10:00 AM83 °FScattered clouds.20 mph73%29.75 "Hg10 mi
9:20 AM82 °FScattered clouds.21 mph76%29.74 "Hg10 mi
8:20 AM82 °FPartly sunny.18 mph78%29.73 "Hg10 mi
8:00 AM81 °FBroken clouds.18 mph79%29.72 "Hg10 mi
7:40 AM81 °FOvercast.16 mph79%29.71 "Hg10 mi
7:20 AM81 °FOvercast.17 mph79%29.70 "Hg10 mi
7:00 AM80 °FMore clouds than sun.17 mph79%29.70 "Hg10 mi
6:40 AM80 °FPartly cloudy.20 mph80%29.69 "Hg10 mi
6:20 AM80 °FPartly cloudy.16 mph81%29.68 "Hg10 mi
6:00 AM80 °FMostly cloudy.16 mph82%29.68 "Hg10 mi
5:40 AM80 °FMostly cloudy.18 mph83%29.68 "Hg10 mi
5:20 AM79 °FMostly cloudy.17 mph84%29.68 "Hg10 mi
5:00 AM79 °FOvercast.17 mph84%29.69 "Hg10 mi
4:40 AM79 °FDrizzle. Overcast.18 mph86%29.69 "Hg10 mi
4:20 AM78 °FOvercast.15 mph88%29.69 "Hg10 mi
4:00 AM77 °FMostly cloudy.16 mph89%29.69 "Hg10 mi
3:40 AM76 °FOvercast.13 mph89%29.68 "Hg10 mi
3:20 AM76 °FPassing clouds.14 mph90%29.70 "Hg10 mi
3:00 AM77 °FPassing clouds.14 mph89%29.71 "Hg7 mi
2:40 AM78 °FHeavy rain. Overcast.26 mph87%29.72 "Hg3 mi
2:20 AM78 °FHeavy rain. Mostly cloudy.26 mph86%29.72 "Hg3 mi
2:00 AM79 °FHeavy rain. Overcast.23 mph84%29.73 "Hg4 mi
1:40 AM80 °FMostly cloudy.25 mph82%29.73 "Hg10 mi
1:20 AM80 °FPartly cloudy.21 mph81%29.74 "Hg10 mi
1:00 AM80 °FPartly cloudy.20 mph82%29.74 "Hg10 mi
Weather by CustomWeather, © 2015

See weather overviewHow to use our weather pages